User: anonymous   Login
Location: Unspecified
(0.0000°N, 0.0000°E)
Time: 23:19:05
(UTC+00:00)
Language:

COMPASS 2 - Orbit

View from above orbital plane
View from above orbital plane
View from above satellite
View from above satellite

Ground track
Ground track

The orbit data is extracted from the following two-line orbital elements,

1 42777U 17036N   21023.39724179  .00001904  00000-0  79334-4 0  9998
2 42777  97.2775  78.1231 0010845 327.6197  32.4374 15.24868260199308
Epoch (UTC): 23 January 2021 09:32:01
Eccentricity: 0.0010845
inclination: 97.2775°
perigee height: 484 km
apogee height: 498 km
right ascension of ascending node: 78.1231°
argument of perigee: 327.6197°
revolutions per day: 15.24868260
mean anomaly at epoch: 32.4374°
orbit number at epoch: 19930

The dashed part of the orbit path shows where the satellite is in the earth's shadow,  

DLR